When you browse on this site, cookies collect data to enhance your experience and personalize the content and advertising you see.
Visit our Privacy Policy to learn more. By continuing to use the site, you agree to this use of cookies and data.
  • In Romania
  • List of Countries
  • For 7 days
  • Water Temperature
  • Weather Map
  • Weather Widgets
  • user-avatar
    Login

    Hourly Weather Razgrad

    Today, 24 January, Friday

    Time Temperature Precipitation Wind Pressure Humidity
    00:00 0°C° 0 mm 1 mps 753 mmHg 74%
    01:00 0°C° 0 mm 1 mps 753 mmHg 74%
    02:00 0°C° 0 mm 1 mps 753 mmHg 76%
    03:00 0°C° 0 mm 1 mps 753 mmHg 76%
    04:00 0°C° 0 mm 1 mps 753 mmHg 76%
    05:00 0°C° 0 mm 1 mps 753 mmHg 76%
    06:00 0°C° 0 mm 1 mps 753 mmHg 75%
    07:00 0°C° 0 mm 1 mps 753 mmHg 74%
    08:00 0°C° 0 mm 1 mps 753 mmHg 72%
    09:00 +1°C° 0 mm 1 mps 753 mmHg 63%
    10:00 +3°C° 0 mm 1 mps 753 mmHg 55%
    11:00 +5°C° 0 mm 1 mps 752 mmHg 46%
    12:00 +6°C° 0 mm 1 mps 752 mmHg 43%
    13:00 +7°C° 0 mm 1 mps 751 mmHg 39%
    14:00 +8°C° 0 mm 1 mps 751 mmHg 36%
    15:00 +7°C° 0 mm 1 mps 750 mmHg 41%
    16:00 +6°C° 0 mm 1 mps 750 mmHg 46%
    17:00 +5°C° 0 mm 1 mps 750 mmHg 50%
    18:00 +4°C° 0 mm 1 mps 749 mmHg 53%
    19:00 +3°C° 0 mm 1 mps 749 mmHg 56%
    20:00 +3°C° 0 mm 1 mps 749 mmHg 59%
    21:00 +2°C° 0 mm 1 mps 749 mmHg 60%
    22:00 +2°C° 0 mm 1 mps 749 mmHg 60%
    23:00 +2°C° 0 mm 1 mps 748 mmHg 61%

    Tomorrow, 25 January, Saturday

    Time Temperature Precipitation Wind Pressure Humidity
    00:00 +2°C° 0 mm 1 mps 748 mmHg 60%
    01:00 +2°C° 0 mm 1 mps 747 mmHg 60%
    02:00 +2°C° 0 mm 1 mps 747 mmHg 59%
    03:00 +2°C° 0 mm 1 mps 747 mmHg 58%
    04:00 +2°C° 0 mm 1 mps 746 mmHg 57%
    05:00 +2°C° 0 mm 1 mps 746 mmHg 56%
    06:00 +2°C° 0 mm 1 mps 746 mmHg 53%
    07:00 +3°C° 0 mm 1 mps 746 mmHg 50%
    08:00 +3°C° 0 mm 1 mps 746 mmHg 47%
    09:00 +5°C° 0 mm 1 mps 746 mmHg 41%
    10:00 +6°C° 0 mm 2 mps 746 mmHg 36%
    11:00 +9°C° 0 mm 2 mps 746 mmHg 30%
    12:00 +9°C° 0 mm 2 mps 746 mmHg 30%
    13:00 +10°C° 0 mm 3 mps 746 mmHg 30%
    14:00 +11°C° 0 mm 3 mps 745 mmHg 30%
    15:00 +9°C° 0 mm 3 mps 745 mmHg 34%
    16:00 +8°C° 0 mm 2 mps 745 mmHg 37%
    17:00 +7°C° 0 mm 2 mps 745 mmHg 41%
    18:00 +6°C° 0 mm 2 mps 745 mmHg 42%
    19:00 +7°C° 0 mm 1 mps 745 mmHg 43%
    20:00 +6°C° 0 mm 1 mps 746 mmHg 44%
    21:00 +6°C° 0 mm 1 mps 746 mmHg 45%
    22:00 +5°C° 0 mm 2 mps 746 mmHg 46%
    23:00 +5°C° 0 mm 2 mps 746 mmHg 47%

    Day after tomorrow, 26 January, Sunday

    Time Temperature Precipitation Wind Pressure Humidity
    00:00 +5°C° 0 mm 2 mps 746 mmHg 49%
    01:00 +5°C° 0 mm 2 mps 746 mmHg 52%
    02:00 +4°C° 0 mm 2 mps 746 mmHg 54%
    03:00 +5°C° 0 mm 1 mps 746 mmHg 55%
    04:00 +5°C° 0 mm 1 mps 746 mmHg 57%
    05:00 +5°C° 0 mm 1 mps 746 mmHg 58%
    06:00 +5°C° 0 mm 1 mps 746 mmHg 58%
    07:00 +5°C° 0 mm 1 mps 746 mmHg 59%
    08:00 +5°C° 0 mm 1 mps 747 mmHg 59%
    09:00 +5°C° 0 mm 0 mps 747 mmHg 55%
    10:00 +7°C° 0 mm 0 mps 747 mmHg 50%
    11:00 +8°C° 0 mm 0 mps 747 mmHg 46%
    12:00 +10°C° 0 mm 1 mps 747 mmHg 45%
    13:00 +11°C° 0 mm 1 mps 747 mmHg 44%
    14:00 +12°C° 0 mm 1 mps 746 mmHg 43%
    15:00 +11°C° 0 mm 1 mps 746 mmHg 48%
    16:00 +10°C° 0 mm 1 mps 746 mmHg 52%
    17:00 +8°C° 0 mm 0 mps 746 mmHg 57%
    18:00 +8°C° 0 mm 0 mps 746 mmHg 59%
    19:00 +8°C° 0 mm 1 mps 746 mmHg 61%
    20:00 +7°C° 0 mm 1 mps 746 mmHg 64%
    21:00 +7°C° 0 mm 1 mps 746 mmHg 65%
    22:00 +7°C° 0 mm 1 mps 746 mmHg 65%
    23:00 +6°C° 0 mm 1 mps 746 mmHg 66%

    27 January, Monday

    Time Temperature Precipitation Wind Pressure Humidity
    00:00 +6°C° 0 mm 1 mps 745 mmHg 68%
    01:00 +6°C° 0 mm 1 mps 745 mmHg 69%
    02:00 +5°C° 0 mm 1 mps 745 mmHg 70%
    03:00 +5°C° 0 mm 1 mps 744 mmHg 72%
    04:00 +5°C° 0 mm 1 mps 744 mmHg 75%
    05:00 +4°C° 0 mm 1 mps 744 mmHg 77%
    06:00 +4°C° 0 mm 1 mps 744 mmHg 78%
    07:00 +3°C° 0 mm 0 mps 744 mmHg 80%
    08:00 +3°C° 0 mm 0 mps 744 mmHg 82%
    09:00 +5°C° 0 mm 0 mps 744 mmHg 79%
    10:00 +6°C° 0 mm 0 mps 744 mmHg 76%
    11:00 +8°C° 0 mm 1 mps 744 mmHg 73%
    12:00 +9°C° 0 mm 1 mps 743 mmHg 71%
    13:00 +10°C° 0 mm 1 mps 743 mmHg 69%
    14:00 +10°C° 0 mm 1 mps 742 mmHg 67%
    15:00 +10°C° 0 mm 1 mps 742 mmHg 69%
    16:00 +9°C° 0 mm 1 mps 742 mmHg 71%
    17:00 +9°C° 0 mm 1 mps 742 mmHg 73%
    18:00 +8°C° 0.1 mm 1 mps 742 mmHg 73%
    19:00 +8°C° 0.1 mm 1 mps 741 mmHg 73%
    20:00 +6°C° 0.1 mm 2 mps 741 mmHg 73%
    21:00 +6°C° 0.2 mm 2 mps 741 mmHg 74%
    22:00 +5°C° 0.2 mm 2 mps 741 mmHg 75%
    23:00 +5°C° 0.2 mm 2 mps 741 mmHg 76%

    28 January, Tuesday

    Time Temperature Precipitation Wind Pressure Humidity
    00:00 +5°C° 0.1 mm 2 mps 741 mmHg 76%
    01:00 +4°C° 0.1 mm 2 mps 740 mmHg 75%
    02:00 +4°C° 0.1 mm 2 mps 740 mmHg 75%
    03:00 +4°C° 0 mm 2 mps 740 mmHg 75%
    04:00 +4°C° 0 mm 2 mps 740 mmHg 75%
    05:00 +3°C° 0 mm 2 mps 740 mmHg 75%
    06:00 +3°C° 0 mm 2 mps 740 mmHg 77%
    07:00 +3°C° 0 mm 2 mps 740 mmHg 80%
    08:00 +3°C° 0 mm 2 mps 740 mmHg 83%
    09:00 +4°C° 0 mm 2 mps 740 mmHg 78%
    10:00 +4°C° 0 mm 3 mps 740 mmHg 74%
    11:00 +7°C° 0 mm 3 mps 740 mmHg 70%
    12:00 +8°C° 0 mm 3 mps 740 mmHg 67%
    13:00 +9°C° 0 mm 3 mps 740 mmHg 64%
    14:00 +10°C° 0 mm 4 mps 739 mmHg 61%
    15:00 +9°C° 0 mm 3 mps 739 mmHg 63%
    16:00 +9°C° 0 mm 2 mps 739 mmHg 66%
    17:00 +9°C° 0 mm 1 mps 739 mmHg 68%
    18:00 +8°C° 0 mm 1 mps 739 mmHg 70%
    19:00 +8°C° 0 mm 1 mps 739 mmHg 73%
    20:00 +7°C° 0 mm 1 mps 739 mmHg 75%
    21:00 +7°C° 0 mm 1 mps 740 mmHg 75%
    22:00 +7°C° 0 mm 1 mps 740 mmHg 75%
    23:00 +6°C° 0 mm 2 mps 740 mmHg 75%

    29 January, Wednesday

    Time Temperature Precipitation Wind Pressure Humidity
    00:00 +6°C° 0 mm 2 mps 740 mmHg 75%
    01:00 +5°C° 0 mm 2 mps 739 mmHg 75%
    02:00 +5°C° 0 mm 2 mps 739 mmHg 74%
    03:00 +5°C° 0 mm 2 mps 739 mmHg 73%
    04:00 +5°C° 0 mm 2 mps 739 mmHg 71%
    05:00 +5°C° 0 mm 2 mps 739 mmHg 69%
    06:00 +5°C° 0 mm 2 mps 739 mmHg 67%
    07:00 +6°C° 0 mm 2 mps 739 mmHg 64%
    08:00 +6°C° 0 mm 2 mps 739 mmHg 62%
    09:00 +7°C° 0 mm 2 mps 740 mmHg 58%
    10:00 +9°C° 0 mm 2 mps 740 mmHg 54%
    11:00 +12°C° 0 mm 2 mps 740 mmHg 50%
    12:00 +13°C° 0 mm 2 mps 740 mmHg 49%
    13:00 +12°C° 0 mm 3 mps 739 mmHg 48%
    14:00 +13°C° 0 mm 3 mps 739 mmHg 47%
    15:00 +13°C° 0 mm 2 mps 739 mmHg 50%
    16:00 +13°C° 0 mm 2 mps 739 mmHg 53%
    17:00 +12°C° 0 mm 1 mps 739 mmHg 56%
    18:00 +11°C° 0 mm 1 mps 739 mmHg 58%
    19:00 +11°C° 0 mm 1 mps 739 mmHg 60%
    20:00 +10°C° 0 mm 1 mps 740 mmHg 62%
    21:00 +10°C° 0 mm 1 mps 740 mmHg 63%
    22:00 +10°C° 0 mm 1 mps 740 mmHg 64%
    23:00 +10°C° 0 mm 1 mps 739 mmHg 64%
    Show more